カタログに戻る

FENGYUN 1C DEB

運用中PO
NORAD 30848·DEBRIS·🇨🇳 China

打ち上げ May 10, 1999 から Taiyuan Satellite Launch Center

Loading…

次のパス (今後24時間)

TLE

最新Source: Space-Track

元期: Sep 13, 2026, 20:30 UTC

1 30848U 99025AWJ 26256.85474748  .00001576  00000-0  55436-3 0  9991
2 30848  99.0401 110.1355 0041227 251.2904 108.3804 14.35942743 12541

AllMySatでFENGYUN 1C DEBをリアルタイム追跡

Download on the App Store